Location: Fort Worth, Tx
(32.7431°N, 97.3695°W)
Time: 10:56:17
(UTC-04:00)

A-11 Canister half - Pass Details

Date: 15 August 2024
Orbit: 1524 x 1684 km, 47.3° (Epoch: 13 September)

Event Time Altitude Azimuth Distance (km) Brightness Sun altitude
Rises 04:13:42 0° 296° (WNW) 4,936 11.6 -37.7°
Reaches altitude 10° 04:17:18 10° 304° (NW) 3,949 11.1 -37.3°
Maximum altitude 04:26:30 37° 9° (N) 2,411 10.3 -36.2°
Drops below altitude 10° 04:35:33 10° 74° (ENE) 3,893 11.6 -35.1°
Sets 04:39:04 0° 83° (E) 4,859 12.2 -34.6°
